Location: Plymouth Village
(34.0436°N, 117.1717°W)
Time: 02:29:14
(UTC+00:00)

Cosmos 1758 Rocket - Pass Details

Date: 10 September 2024
Orbit: 597 x 632 km, 82.5° (Epoch: 06 October)

Event Time Altitude Azimuth Distance (km) Brightness Sun altitude
Rises 12:18:59 0° 341° (NNW) 2,897 7.0 -15.0°
Reaches altitude 10° 12:21:25 10° 331° (NNW) 1,981 6.0 -14.5°
Maximum altitude 12:25:15 30° 270° (W) 1,095 4.3 -13.8°
Drops below altitude 10° 12:29:02 10° 208° (SSW) 1,950 5.7 -13.0°
Enters shadow 12:30:19 - 202° (SSW) 2,421 6.3 -12.8°
